星链-31852 (STARLINK-31852 )

导读

STARLINK-31852是美国SpaceX星链互联网星座的一员,于北京时间2024年5月23日发射入轨,属于低轨卫星。作为星链组网卫星,它承担着为全球提供高速低延迟互联网服务的任务,尤其是满足偏远地区、海上和航空场景的网络连接需求,进一步扩充了星链星座的覆盖能力与服务容量。

Basic Information
目录编号:
59841
目录名称:
STARLINK-31852
国际标识:
2024-097G
轨道中心:
EARTH
卫星名称:
星链-31852
卫星全名:
星链-31852 (STARLINK-31852 )
卫星状态:
在轨 (已飞行841 天)
发射日期:
2024-05-23 UTC
国别 :
美国 (US)
星等 :
--
This satellite is enrolled in the Space Conjunction Data Service (SCDS) and the current flight risk assessment level is: No High Risk
Orbit Information
数据来源 国际轨道数据 AOE轨道数据
星历时间 2026-09-11T10:37:51+0800
14小时前
查看轨道信息
2026-09-06T07:00:00+0800
5天前
查看轨道信息
半长轴 6861.203km 6861.206km
偏心率 0.0001314 0.0001401
轨道倾角 43.004° 43.003°
近地点辐角 274.870° 261.690°
升交点赤经 299.482° 328.577°
平近点角 85.201° 176.831°
近地点 482.164km 482.107km
远地点 483.968km 484.031km
周期 94.267分钟 94.267分钟
每日圈数 15.275745 15.275736
Detailed Information
固有亮度:
5
最大亮度:
1.5
卫星平台:
Starlink v2.0 mini
覆盖范围:
全球
运营商:
太空探索技术公司
运营商所在国:
美国
制造商(研发单位):
太空探索技术公司
制造商所在国:
美国
使用方式:
暂无
Satellite Introduction
星链(Starlink)计划是由太空探索技术公司(SpaceX)提出的一个巨型低轨卫星互联网星座项目,计划在2019年至2024年间在太空搭建由约1.2万颗卫星组成的“星链”网络,其中1584颗将部署在地球上空550千米处的近地轨道,并从2020年开始工作。该卫星仍在工作。
2D Orbit Map
3D Orbit Map
Orbit Altitude Analysis Chart
Orbit Inclination Analysis Chart
Orbit Comprehensive Analysis Chart
View Comprehensive Chart
Conjunction Data List
Event ID Objects TCA Miss Dist (km) Collision Risk Probability Collision Risk Index (CRI) Action
CDM_260912-070605-984106-397221
2026-09-12T
07:06:13+0000
0.599 km
远距离
8.631758E-5 中风险 0.74
CDM_260913-113805-984106-685821
2026-09-13T
11:38:53+0000
0.644 km
远距离
6.308212E-5 中风险 0.71
CDM_260913-104905-984106-731721
2026-09-13T
10:49:49+0000
0.663 km
远距离
4.956634E-5 中风险 0.69
CDM_260911-145805-984106-364221
2026-09-11T
14:58:09+0000
0.763 km
远距离
4.297244E-5 中风险 0.68
CDM_260912-162205-984106-681721
2026-09-12T
16:22:28+0000
0.953 km
远距离
2.447452E-5 中风险 0.63
CDM_260913-043505-984106-685821
2026-09-13T
04:35:12+0000
1.072 km
极远距离
1.191096E-5 中风险 0.57
CDM_260912-024405-984106-364221
2026-09-12T
02:44:18+0000
1.127 km
极远距离
1.15067E-5 中风险 0.56
CDM_260912-041805-984106-364221
2026-09-12T
04:18:27+0000
1.187 km
极远距离
9.618462E-6 低风险 0.55
CDM_260912-053205-984106-397221
2026-09-12T
05:32:04+0000
1.218 km
极远距离
8.571925E-6 低风险 0.54
CDM_260913-091505-984106-731721
2026-09-13T
09:15:39+0000
1.385 km
极远距离
4.25622E-6 低风险 0.48
Miss Distance Evolution Trend with All Objects
Collision Probability Evolution Trend with All Objects